• Join FlightAware (Why Join?)
  • Login
  • US Flag 
07:57AM EDT


 

Airport Tracker/Info


-or-


 

Live Flight TrackerFlight Track Log ✈ AFL150 ✈ 28-Sep-2013 ✈ UUEE / SVO - MUHA / HAV

Flight Track Log - Related Links

Times and Time Zones

All times are in EDT time to prevent confusion due to time zone crossing. See the AFL150 flight status page for this flight to view local times or setup timezone preferences in your user account.

Time Position Orientation Groundspeed Altitude Reporting Facility
EDT Latitude Longitude Course Direction KTS MPH feet Rate Location/Type
06:23AM 55.9640 37.3650 256° West 173 199 1,800  Level FlightAware
06:23AM 55.9600 37.3380 255° West 175 201 2,600 1,920 Climbing FlightAware
06:23AM 55.9560 37.3090 256° West 182 209 3,100 1,620 Climbing FlightAware
06:24AM 55.9520 37.2800 256° West 180 207 3,700 1,320 Climbing FlightAware
06:24AM 55.9480 37.2520 256° West 187 215 4,000 720 Climbing FlightAware
06:24AM 55.9440 37.2190 258° West 212 244 4,200 600 Climbing FlightAware
06:25AM 55.9440 37.2010 270° West 226 260 4,300 780 Climbing FlightAware
06:25AM 55.9480 37.1600 280° West 252 290 4,600 1,500 Climbing FlightAware
06:25AM 55.9530 37.1190 282° West 260 299 5,300 2,400 Climbing FlightAware
06:26AM 55.9580 37.0770 282° West 261 300 6,200 2,700 Climbing FlightAware
06:26AM 55.9610 37.0440 279° West 265 305 6,900 2,520 Climbing FlightAware
06:26AM 55.9650 37.0020 280° West 268 308 7,700 2,400 Climbing FlightAware
06:27AM 55.9730 36.9600 289° West 270 311 8,500 2,520 Climbing FlightAware
06:27AM 55.9850 36.9200 298° West 272 313 9,400 2,520 Climbing FlightAware
06:27AM 55.9940 36.8900 298° West 275 316 10,000 1,860 Climbing FlightAware
06:28AM 56.0110 36.8280 296° West 294 338 10,800 1,500 Climbing FlightAware
06:28AM 56.0370 36.7360 297° West 322 371 11,800 1,920 Climbing FlightAware
06:29AM 56.0570 36.6640 296° West 322 371 13,100 2,400 Climbing FlightAware
06:29AM 56.0800 36.5790 296° West 330 380 14,400 1,680 Climbing FlightAware
06:30AM 56.1050 36.4910 297° West 352 405 15,100 1,560 Climbing FlightAware
06:31AM 56.1330 36.3880 296° West 361 415 16,400 2,040 Climbing FlightAware
06:31AM 56.1560 36.3030 296° West 368 423 17,500 1,980 Climbing FlightAware
06:32AM 56.1820 36.2060 296° West 372 428 18,600 1,920 Climbing FlightAware
06:32AM 56.2130 36.0940 296° West 377 434 19,900 1,800 Climbing FlightAware
06:33AM 56.2390 35.9950 295° West 384 442 20,900 1,740 Climbing FlightAware
06:33AM 56.2620 35.9100 296° West 388 447 21,800 1,680 Climbing FlightAware
06:34AM 56.3000 35.7980 301° West 393 452 22,900 1,500 Climbing FlightAware
06:35AM 56.3420 35.7360 321° Northwest 398 458 23,600 1,320 Climbing FlightAware
06:35AM 56.3990 35.6490 320° Northwest 404 465 24,500 1,320 Climbing FlightAware
06:36AM 56.4420 35.5840 320° Northwest 407 468 25,200 1,380 Climbing FlightAware
06:36AM 56.4920 35.5060 319° Northwest 414 476 26,000 1,260 Climbing FlightAware
06:37AM 56.5510 35.4150 320° Northwest 420 483 26,800 1,200 Climbing FlightAware
06:38AM 56.6010 35.3370 319° Northwest 424 488 27,500 1,200 Climbing FlightAware
06:38AM 56.6480 35.2650 320° Northwest 426 490 28,100 1,200 Climbing FlightAware
06:39AM 56.7080 35.1720 320° Northwest 429 494 28,900 1,080 Climbing FlightAware
06:39AM 56.7600 35.0890 319° Northwest 430 495 29,500 960 Climbing FlightAware
06:40AM 56.8050 35.0180 319° Northwest 433 498 30,000 960 Climbing FlightAware
06:40AM 56.8590 34.9330 319° Northwest 435 501 30,600 840 Climbing FlightAware
06:41AM 56.9190 34.8370 319° Northwest 440 506 31,100 780 Climbing FlightAware
06:42AM 56.9730 34.7510 319° Northwest 445 512 31,600 720 Climbing FlightAware
06:42AM 57.0200 34.6760 319° Northwest 448 516 31,900 660 Climbing FlightAware
06:43AM 57.0820 34.5760 319° Northwest 452 520 32,400 660 Climbing FlightAware
06:43AM 57.1290 34.4990 318° Northwest 456 525 32,700 600 Climbing FlightAware
06:44AM 57.1840 34.4110 319° Northwest 459 528 33,100 600 Climbing FlightAware
06:45AM 57.2400 34.3190 318° Northwest 464 534 33,400 480 Climbing FlightAware
06:45AM 57.3040 34.2140 318° Northwest 470 541 33,700 420 Climbing FlightAware
06:46AM 57.3540 34.1320 319° Northwest 471 542 33,900 660 Climbing FlightAware
06:46AM 57.4190 34.0250 318° Northwest 471 542 34,500 780 Climbing FlightAware
06:47AM 57.4750 33.9310 318° Northwest 471 542 34,900 720 Climbing FlightAware
06:47AM 57.5220 33.8530 318° Northwest 470 541 35,300 780 Climbing FlightAware
06:48AM 57.5800 33.7560 318° Northwest 466 536 35,800 540 Climbing FlightAware
06:49AM 57.6440 33.6490 318° Northwest 470 541 36,000 120 Climbing FlightAware
06:49AM 57.6930 33.5660 318° Northwest 475 547 36,000  Level FlightAware
06:50AM 57.7500 33.4730 319° Northwest 474 545 36,000  Level FlightAware
06:50AM 57.8120 33.3880 324° Northwest 472 543 36,000  Level FlightAware
06:51AM 57.8820 33.3000 326° Northwest 470 541 36,000  Level FlightAware
06:52AM 57.9350 33.2310 325° Northwest 470 541 36,000  Level FlightAware
06:52AM 58.0160 33.1230 325° Northwest 469 540 36,000  Level FlightAware
06:53AM 58.0870 33.0270 324° Northwest 470 541 36,000  Level FlightAware
06:54AM 58.1410 32.9540 325° Northwest 470 541 36,000  Level FlightAware
06:54AM 58.2100 32.8590 324° Northwest 470 541 36,000  Level FlightAware
06:55AM 58.2640 32.7840 324° Northwest 470 541 36,000  Level FlightAware
06:56AM 58.3170 32.7100 324° Northwest 470 541 36,000  Level FlightAware
06:56AM 58.3730 32.6330 324° Northwest 470 541 36,000  Level FlightAware
06:57AM 58.4280 32.5570 324° Northwest 470 541 36,000  Level FlightAware
06:57AM 58.4830 32.4800 324° Northwest 470 541 36,000  Level FlightAware
06:58AM 58.5390 32.4030 324° Northwest 470 541 36,000  Level FlightAware
06:59AM 58.5930 32.3280 324° Northwest 470 541 36,000  Level FlightAware
06:59AM 58.6430 32.2570 324° Northwest 470 541 36,000  Level FlightAware
07:00AM 58.8310 32.0000 325° Northwest 473 544 36,000  Level FlightAware
07:01AM 58.8850 31.9240 324° Northwest 473 544 36,000  Level FlightAware
07:01AM 58.9390 31.8470 324° Northwest 473 544 36,000  Level FlightAware
07:02AM 59.0280 31.7170 323° Northwest 472 543 36,000  Level FlightAware
07:02AM 59.0900 31.6280 324° Northwest 471 542 36,000  Level FlightAware
07:03AM 59.1520 31.5280 320° Northwest 474 545 36,000  Level FlightAware
07:03AM 59.1750 31.4630 305° West 479 551 36,000  Level FlightAware
07:04AM 59.1920 31.3770 291° West 484 557 36,000  Level FlightAware
07:04AM 59.2170 31.2310 289° West 485 558 36,000  Level FlightAware
07:05AM 59.2400 31.1020 289° West 486 559 36,000  Level FlightAware
07:05AM 59.2650 30.9530 288° West 487 560 36,000  Level FlightAware
07:06AM 59.2910 30.7960 288° West 486 559 36,000  Level FlightAware
07:07AM 59.3120 30.6700 288° West 486 559 36,000  Level FlightAware
07:07AM 59.3360 30.5220 288° West 486 559 36,000  Level FlightAware
07:08AM 59.3610 30.3670 288° West 486 559 36,000  Level FlightAware
07:08AM 59.3870 30.2100 288° West 487 560 36,000  Level FlightAware
07:09AM 59.4120 30.0560 288° West 489 563 36,000  Level FlightAware
07:10AM 59.4330 29.9260 288° West 489 563 36,000  Level FlightAware
07:10AM 59.4570 29.7800 288° West 490 564 36,000  Level FlightAware
07:10AM 59.4700 29.6960 287° West 490 564 36,000  Level FlightAware
07:11AM 59.5110 29.4380 287° West 490 564 36,000  Level FlightAware
07:12AM 59.5320 29.3020 287° West 489 563 36,000  Level FlightAware
07:13AM 59.5560 29.1450 287° West 487 560 36,000  Level FlightAware
07:13AM 59.5770 29.0090 287° West 485 558 36,000  Level FlightAware
07:14AM 59.6010 28.8500 287° West 486 559 36,000  Level FlightAware
07:14AM 59.6230 28.7050 287° West 484 557 36,000  Level FlightAware
07:15AM 59.6450 28.5580 287° West 484 557 36,000  Level FlightAware
07:16AM 59.6670 28.4030 286° West 484 557 36,000  Level FlightAware
07:16AM 59.6870 28.2620 286° West 485 558 36,000  Level FlightAware
07:17AM 59.7080 28.1140 286° West 485 558 36,000  Level FlightAware
07:17AM 59.7310 27.9560 286° West 485 558 36,000  Level FlightAware
07:18AM 59.7520 27.8020 285° West 485 558 36,000  Level FlightAware
07:18AM 59.7710 27.6670 286° West 485 558 36,000  Level FlightAware
07:19AM 59.7920 27.5100 285° West 485 558 36,000  Level FlightAware
07:20AM 59.8140 27.3550 286° West 486 559 36,000  Level FlightAware
07:20AM 59.8340 27.2030 285° West 487 560 36,000  Level FlightAware
07:21AM 59.8520 27.0660 285° West 488 562 36,000  Level FlightAware
07:21AM 59.8730 26.9080 285° West 489 563 36,000  Level FlightAware
07:22AM 59.8930 26.7550 285° West 488 562 36,000  Level FlightAware
07:23AM 59.9140 26.5920 284° West 488 562 36,000  Level FlightAware
07:23AM 59.9330 26.4570 286° West 485 558 36,000  Level FlightAware
07:24AM 59.9600 26.3120 290° West 481 554 36,000  Level FlightAware
07:24AM 59.9970 26.1650 297° West 477 549 36,000  Level FlightAware
07:25AM 60.0340 26.0490 303° West 476 548 36,000  Level FlightAware
07:25AM 60.0720 25.9220 301° West 475 547 36,000  Level FlightAware
07:26AM 60.1190 25.7660 301° West 475 547 36,000  Level FlightAware
07:27AM 60.1540 25.6520 302° West 477 549 36,000  Level FlightAware
07:27AM 60.1950 25.5130 301° West 477 549 36,000  Level FlightAware
07:28AM 60.2370 25.3740 301° West 478 550 36,000  Level FlightAware
07:28AM 60.2740 25.2490 301° West 479 551 36,000  Level FlightAware
07:29AM 60.3130 25.1170 301° West 480 552 36,000  Level FlightAware
07:29AM 60.3540 24.9770 301° West 479 551 36,000  Level FlightAware
07:30AM 60.3940 24.8360 300° West 478 550 36,000  Level FlightAware
07:31AM 60.4310 24.7090 301° West 478 550 36,000  Level FlightAware
07:31AM 60.4710 24.5690 300° West 479 551 36,000  Level FlightAware
07:32AM 60.5130 24.4240 301° West 478 550 36,000  Level FlightAware
07:32AM 60.5460 24.3090 300° West 477 549 36,000  Level FlightAware
07:33AM 60.5860 24.1670 300° West 477 549 36,000  Level FlightAware
07:34AM 60.6250 24.0280 300° West 476 548 36,000  Level FlightAware
07:34AM 60.6590 23.9050 299° West 476 548 36,000  Level FlightAware
07:35AM 60.6920 23.7870 300° West 476 548 36,000  Level FlightAware
07:35AM 60.7290 23.6530 299° West 476 548 36,000  Level FlightAware
07:36AM 60.7690 23.5060 299° West 476 548 36,000  Level FlightAware
07:36AM 60.8060 23.3710 299° West 475 547 36,000  Level FlightAware
07:37AM 60.8450 23.2250 299° West 477 549 36,000  Level FlightAware
07:38AM 60.8780 23.1040 299° West 478 550 36,000  Level FlightAware
07:38AM 60.9190 22.9490 299° West 478 550 36,000  Level FlightAware
07:39AM 60.9560 22.8120 299° West 477 549 36,000  Level FlightAware
07:39AM 60.9890 22.6850 298° West 477 549 36,000  Level FlightAware
07:40AM 61.0260 22.5460 299° West 477 549 36,000  Level FlightAware
07:40AM 61.0640 22.3990 298° West 477 549 36,000  Level FlightAware
07:41AM 61.0960 22.2760 298° West 477 549 36,000  Level FlightAware
07:42AM 61.1350 22.1230 298° West 479 551 36,000  Level FlightAware
07:42AM 61.1670 21.9750 294° West 478 550 36,000  Level FlightAware
07:43AM 61.2000 21.8310 295° West 477 549 36,000  Level FlightAware
07:43AM 61.2340 21.6800 295° West 476 548 36,000  Level FlightAware
07:44AM 61.2640 21.5430 295° West 477 549 36,000  Level FlightAware
07:45AM 61.2990 21.3850 295° West 476 548 36,000  Level FlightAware
07:45AM 61.3320 21.2380 295° West 475 547 36,000  Level FlightAware
07:46AM 61.3610 21.1040 294° West 474 545 36,000  Level FlightAware
07:46AM 61.3930 20.9580 295° West 473 544 36,000  Level FlightAware
07:47AM 61.4250 20.8100 294° West 473 544 36,000  Level FlightAware
07:47AM 61.4560 20.6630 294° West 474 545 36,000  Level FlightAware
07:48AM 61.4890 20.5100 294° West 475 547 36,000  Level FlightAware
07:49AM 61.5180 20.3700 294° West 476 548 36,000  Level FlightAware
07:49AM 61.5510 20.2150 294° West 475 547 36,000  Level FlightAware
07:49AM 61.5619 20.1635 294° West 475 547 36,000  Level FlightAware ADS-B
07:50AM 61.5891 20.0324 294° West 471 542 36,000  Level FlightAware ADS-B
07:51AM 61.6427 19.7724 294° West 472 543 36,000  Level FlightAware ADS-B
07:51AM 61.6685 19.6458 293° West 473 544 36,000  Level FlightAware ADS-B
07:52AM 61.6949 19.5156 293° West 473 544 36,000  Level FlightAware ADS-B
07:53AM 61.7280 19.3510 293° West 472 543 36,000  Level FlightAware ADS-B
07:53AM 61.7547 19.2173 293° West 472 543 36,000  Level FlightAware ADS-B
07:54AM 61.7877 19.0510 293° West 472 543 36,000  Level FlightAware ADS-B
07:54AM 61.8138 18.9186 293° West 476 548 36,000  Level FlightAware ADS-B
07:55AM 61.8465 18.7512 293° West 476 548 36,000  Level FlightAware ADS-B
07:55AM 61.8721 18.6195 292° West 475 547 36,000  Level FlightAware ADS-B
07:56AM 61.9001 18.4734 292° West 473 544 36,000  Level FlightAware ADS-B
07:57AM 61.9253 18.3421 292° West 472 543 36,000  Level FlightAware ADS-B
07:57AM 61.9498 18.2134 292° West 471 542 36,000  Level FlightAware ADS-B
07:58AM 61.9818 18.0439 292° West 467 537 36,000  Level FlightAware ADS-B
07:58AM 62.0063 17.9136 292° West 466 536 36,000  Level FlightAware ADS-B
07:59AM 62.0376 17.7447 292° West 467 537 36,000  Level FlightAware ADS-B
07:59AM 62.0615 17.6148 292° West 466 536 36,000  Level FlightAware ADS-B
08:00AM 62.0856 17.4826 291° West 467 537 36,000  Level FlightAware ADS-B
08:01AM 62.1169 17.3101 291° West 466 536 36,000  Level FlightAware ADS-B
08:01AM 62.1560 17.0900 291° West 462 532 36,000  Level FlightAware
08:02AM 62.1698 17.0156 292° West 459 528 36,000  Level FlightAware ADS-B
08:02AM 62.1930 16.8850 291° West 458 527 36,000  Level FlightAware ADS-B
08:03AM 62.2158 16.7557 291° West 456 525 36,000  Level FlightAware ADS-B
08:03AM 62.2378 16.6299 291° West 454 522 36,000  Level FlightAware ADS-B
08:04AM 62.2601 16.5019 291° West 450 518 36,000  Level FlightAware ADS-B
08:04AM 62.2816 16.3777 290° West 449 517 36,000  Level FlightAware ADS-B
08:05AM 62.3038 16.2489 290° West 449 517 36,000  Level FlightAware ADS-B
08:05AM 62.3325 16.0801 290° West 451 519 36,000  Level FlightAware ADS-B
08:06AM 62.3608 15.9123 290° West 450 518 36,000  Level FlightAware ADS-B
08:07AM 62.3882 15.7483 290° West 450 518 36,000  Level FlightAware ADS-B
08:07AM 62.4096 15.6187 290° West 448 516 36,000  Level FlightAware ADS-B
08:08AM 62.4370 15.4528 290° West 448 516 36,000  Level FlightAware ADS-B
08:08AM 62.4576 15.3267 290° West 446 513 36,000  Level FlightAware ADS-B
08:09AM 62.4848 15.1584 289° West 446 513 36,000  Level FlightAware ADS-B
08:10AM 62.5051 15.0313 289° West 446 513 36,000  Level FlightAware ADS-B
08:10AM 62.5275 14.8914 289° West 446 513 36,000  Level FlightAware ADS-B
08:11AM 62.5478 14.7630 289° West 446 513 36,000  Level FlightAware ADS-B
08:11AM 62.5681 14.6337 289° West 445 512 36,000  Level FlightAware ADS-B
08:12AM 62.5932 14.4731 289° West 442 509 36,000  Level FlightAware ADS-B
08:12AM 62.6131 14.3442 289° West 439 505 36,000  Level FlightAware ADS-B
08:13AM 62.6321 14.2205 289° West 436 502 36,000  Level FlightAware ADS-B
08:13AM 62.6513 14.0949 288° West 433 498 36,000  Level FlightAware ADS-B
08:14AM 62.6880 13.8510 288° West 436 502 36,000  Level FlightAware
08:15AM 62.7064 13.7282 288° West 436 502 36,000  Level FlightAware ADS-B
08:15AM 62.7252 13.6015 288° West 438 504 36,000  Level FlightAware ADS-B
08:16AM 62.7436 13.4763 288° West 439 505 36,000  Level FlightAware ADS-B
08:16AM 62.7680 13.3087 288° West 439 505 36,000  Level FlightAware ADS-B
08:17AM 62.7940 13.1300 288° West 441 507 36,000  Level FlightAware
08:18AM 62.8150 12.9840 288° West 439 505 36,000  Level FlightAware
08:18AM 62.8370 12.8280 287° West 439 505 36,000  Level FlightAware
08:19AM 62.8580 12.6770 287° West 440 506 36,000  Level FlightAware
08:19AM 62.8753 12.5524 287° West 440 506 36,000  Level FlightAware ADS-B
08:20AM 62.9010 12.3660 287° West 441 507 36,000  Level FlightAware ADS-B
08:21AM 62.9210 12.2210 287° West 440 506 36,000  Level FlightAware
08:21AM 62.9403 12.0769 286° West 438 504 36,000  Level FlightAware ADS-B
08:22AM 62.9600 11.9280 286° West 439 505 36,000  Level FlightAware
08:22AM 62.9632 11.9059 288° West 438 504 36,000  Level FlightAware ADS-B
08:23AM 62.9800 11.7770 286° West 440 506 36,000  Level FlightAware
08:23AM 62.9864 11.7305 287° West 437 503 36,000  Level FlightAware ADS-B
08:23AM 63.0035 11.6005 286° West 435 501 36,000  Level FlightAware ADS-B
08:24AM 63.0202 11.4722 286° West 433 498 36,000  Level FlightAware ADS-B
08:24AM 63.0360 11.3500 286° West 433 498 36,000  Level FlightAware
08:25AM 63.0570 11.1850 286° West 432 497 36,000  Level FlightAware
08:25AM 63.0760 11.0330 285° West 431 496 36,000  Level FlightAware
08:26AM 63.0940 10.8900 286° West 431 496 36,000  Level FlightAware
08:27AM 63.1130 10.7400 286° West 432 497 36,000  Level FlightAware
08:27AM 63.1300 10.5990 285° West 433 498 36,000  Level FlightAware
08:28AM 63.1470 10.4600 285° West 433 498 36,000  Level FlightAware
08:28AM 63.1680 10.2870 285° West 435 501 36,000  Level FlightAware
08:29AM 63.1860 10.1410 285° West 437 503 36,000  Level FlightAware
08:29AM 63.2020 9.9980 284° West 437 503 36,000  Level FlightAware
08:30AM 63.2190 9.8530 285° West 435 501 36,000  Level FlightAware
08:31AM 63.2380 9.6900 285° West 434 499 36,000  Level FlightAware
08:31AM 63.2560 9.5390 285° West 433 498 36,000  Level FlightAware
08:32AM 63.2730 9.3820 284° West 432 497 36,000  Level FlightAware
08:32AM 63.2890 9.2410 284° West 431 496 36,000  Level FlightAware
08:33AM 63.3060 9.0950 285° West 431 496 36,000  Level FlightAware
08:34AM 63.3230 8.9330 283° West 430 495 36,000  Level FlightAware
08:34AM 63.3390 8.7860 284° West 429 494 36,000  Level FlightAware
08:35AM 63.3530 8.6570 284° West 429 494 36,000  Level FlightAware
08:35AM 63.3710 8.4870 283° West 429 494 36,000  Level FlightAware
08:36AM 63.3870 8.3410 284° West 430 495 36,000  Level FlightAware
08:37AM 63.4030 8.1810 283° West 431 496 36,000  Level FlightAware
08:37AM 63.4180 8.0390 283° West 431 496 36,000  Level FlightAware
08:38AM 63.4330 7.8870 283° West 431 496 36,000  Level FlightAware
08:38AM 63.4490 7.7270 283° West 430 495 36,000  Level FlightAware
08:39AM 63.4630 7.5890 283° West 430 495 36,000  Level FlightAware
08:39AM 63.4790 7.4330 283° West 428 493 36,000  Level FlightAware
08:40AM 63.4930 7.2820 282° West 429 494 36,000  Level FlightAware
08:41AM 63.5090 7.1220 283° West 431 496 36,000  Level FlightAware
08:41AM 63.5220 6.9840 282° West 433 498 36,000  Level FlightAware
08:42AM 63.5370 6.8240 282° West 435 501 36,000  Level FlightAware
08:42AM 63.5520 6.6610 282° West 436 502 36,000  Level FlightAware
08:43AM 63.5650 6.5160 281° West 437 503 36,000  Level FlightAware
08:43AM 63.5790 6.3620 282° West 439 505 36,000  Level FlightAware
08:44AM 63.5930 6.2000 281° West 440 506 36,000  Level FlightAware
08:45AM 63.6070 6.0410 281° West 441 507 36,000  Level FlightAware
08:45AM 63.6200 5.8870 281° West 440 506 36,000  Level FlightAware
08:46AM 63.6340 5.7310 281° West 439 505 36,000  Level FlightAware
08:46AM 63.6480 5.5670 281° West 438 504 36,000  Level FlightAware
08:47AM 63.6590 5.4240 280° West 437 503 36,000  Level FlightAware
08:48AM 63.6720 5.2680 281° West 436 502 36,000  Level FlightAware
08:48AM 63.6850 5.1090 281° West 436 502 36,000  Level FlightAware
08:49AM 63.6980 4.9440 280° West 435 501 36,000  Level FlightAware
08:49AM 63.7090 4.8110 281° West 434 499 36,000  Level FlightAware
08:50AM 63.7220 4.6420 280° West 432 497 36,000  Level FlightAware
08:51AM 63.7360 4.4590 280° West 433 498 36,000  Level FlightAware
08:51AM 63.7460 4.3280 280° West 433 498 36,000  Level FlightAware
08:52AM 63.7590 4.1500 279° West 433 498 36,000  Level FlightAware
08:52AM 63.7710 3.9860 279° West 434 499 36,000  Level FlightAware
08:53AM 63.7810 3.8360 279° West 434 499 36,000  Level FlightAware
08:54AM 63.7930 3.6700 279° West 433 498 36,000  Level FlightAware
08:54AM 63.8030 3.5270 279° West 434 499 36,000  Level FlightAware
08:55AM 63.8140 3.3650 279° West 434 499 36,000  Level FlightAware
08:55AM 63.8240 3.2090 278° West 435 501 36,000  Level FlightAware
08:56AM 63.8360 3.0270 279° West 436 502 36,000  Level FlightAware
08:57AM 63.8470 2.8610 279° West 435 501 36,000  Level FlightAware
08:57AM 63.8570 2.7040 278° West 435 501 36,000  Level FlightAware
08:58AM 63.8670 2.5470 278° West 435 501 36,000  Level FlightAware
08:58AM 63.8750 2.4010 277° West 434 499 36,000  Level FlightAware
08:59AM 63.8870 2.2030 278° West 432 497 36,000  Level FlightAware
09:00AM 63.8970 2.0410 278° West 431 496 36,000  Level FlightAware
09:00AM 63.9060 1.8710 277° West 431 496 36,000  Level FlightAware
09:01AM 63.9160 1.6950 277° West 429 494 36,000  Level FlightAware
09:01AM 63.9250 1.5400 278° West 428 493 36,000  Level FlightAware
09:02AM 63.9330 1.3880 277° West 428 493 36,000  Level FlightAware
09:03AM 63.9410 1.2330 277° West 428 493 36,000  Level FlightAware
09:03AM 63.9490 1.0770 277° West 428 493 36,000  Level FlightAware
09:04AM 63.9570 0.9300 277° West 429 494 36,000  Level FlightAware
09:04AM 63.9630 0.7930 276° West 429 494 36,000  Level FlightAware
09:05AM 63.9690 0.6550 276° West 429 494 36,000  Level FlightAware
09:06AM 63.9760 0.5180 277° West 429 494 36,000  Level FlightAware
09:06AM 63.9820 0.3800 276° West 429 494 36,000  Level FlightAware
09:07AM 63.9930 0.1430 276° West 426 490 36,000  Level FlightAware
09:07AM 63.9980 0.0060 275° West 426 490 36,000  Level FlightAware
09:08AM 64.0080 -0.2170 276° West 430 495 36,000  Level FlightAware
09:09AM 64.0120 -0.3630 274° West 430 495 36,000  Level FlightAware
09:09AM 64.0170 -0.5230 274° West 431 496 36,000  Level FlightAware
09:10AM 64.0220 -0.6700 275° West 432 497 36,000  Level FlightAware
09:10AM 64.0270 -0.8330 274° West 431 496 36,000  Level FlightAware
09:11AM 64.0310 -0.9960 273° West 431 496 36,000  Level FlightAware
09:11AM 64.0330 -1.0610 274° West 431 496 36,000  Level FlightAware
09:12AM 64.0390 -1.3110 273° West 431 496 36,000  Level FlightAware
09:13AM 64.0440 -1.4780 274° West 429 494 36,000  Level FlightAware
09:13AM 64.0470 -1.6410 272° West 427 491 36,000  Level FlightAware
09:14AM 64.0500 -1.7740 273° West 426 490 36,000  Level FlightAware
09:14AM 64.0540 -1.9490 273° West 425 489 36,000  Level FlightAware
09:15AM 64.0580 -2.1170 273° West 425 489 36,000  Level FlightAware
09:16AM 64.0600 -2.2510 272° West 425 489 36,000  Level FlightAware
09:16AM 64.0630 -2.4090 273° West 424 488 36,000  Level FlightAware
09:17AM 64.0660 -2.5690 273° West 424 488 36,000  Level FlightAware
09:18AM 64.0700 -2.7980 272° West 424 488 36,000  Level FlightAware
09:18AM 64.0720 -2.9350 272° West 424 488 36,000  Level FlightAware
09:19AM 64.0740 -3.0720 272° West 424 488 36,000  Level FlightAware
09:19AM 64.0760 -3.2100 272° West 424 488 36,000  Level FlightAware
09:20AM 64.0780 -3.4450 271° West 421 484 36,000  Level FlightAware
09:21AM 64.0800 -3.5960 272° West 421 484 36,000  Level FlightAware
09:21AM 64.0810 -3.7560 271° West 422 486 36,000  Level FlightAware
09:22AM 64.0820 -3.9100 271° West 422 486 36,000  Level FlightAware
09:22AM 64.0830 -4.0770 271° West 423 487 36,000  Level FlightAware
09:23AM 64.0840 -4.2140 271° West 423 487 36,000  Level FlightAware
09:23AM 64.0850 -4.3690 271° West 423 487 36,000  Level FlightAware
09:24AM 64.0850 -4.5370 270° West 424 488 36,000  Level FlightAware
09:25AM 64.0860 -4.6870 271° West 424 488 36,000  Level FlightAware
09:25AM 64.0860 -4.8360 270° West 424 488 36,000  Level FlightAware
09:26AM 64.0860 -4.9950 270° West 424 488 36,000  Level FlightAware
09:26AM 64.0860 -5.1450 270° West 423 487 36,000  Level FlightAware
09:27AM 64.0860 -5.3220 270° West 422 486 36,000  Level FlightAware
09:28AM 64.0860 -5.4580 270° West 421 484 36,000  Level FlightAware
09:28AM 64.0850 -5.6160 269° West 421 484 36,000  Level FlightAware
09:29AM 64.0840 -5.7810 269° West 421 484 36,000  Level FlightAware
09:29AM 64.0830 -5.9260 269° West 422 486 36,000  Level FlightAware
09:30AM 64.0820 -6.0810 269° West 422 486 36,000  Level FlightAware
09:30AM 64.0810 -6.2360 269° West 423 487 36,000  Level FlightAware
09:31AM 64.0790 -6.4090 269° West 424 488 36,000  Level FlightAware
09:32AM 64.0780 -6.5690 269° West 423 487 36,000  Level FlightAware
09:32AM 64.0760 -6.7030 268° West 423 487 36,000  Level FlightAware
09:33AM 64.0740 -6.8760 269° West 423 487 36,000  Level FlightAware
09:33AM 64.0720 -7.0220 268° West 423 487 36,000  Level FlightAware
09:34AM 64.0700 -7.1630 268° West 424 488 36,000  Level FlightAware
09:35AM 64.0680 -7.3290 268° West 424 488 36,000  Level FlightAware
09:35AM 64.0650 -7.4870 268° West 425 489 36,000  Level FlightAware
09:36AM 64.0610 -7.6650 267° West 426 490 36,000  Level FlightAware
09:37AM 64.0580 -7.8070 267° West 426 490 36,000  Level FlightAware
09:37AM 64.0560 -7.9800 269° West 426 490 36,000  Level FlightAware
09:38AM 64.0520 -8.1390 267° West 426 490 36,000  Level FlightAware
09:38AM 64.0490 -8.2760 267° West 426 490 36,000  Level FlightAware
09:39AM 64.0460 -8.4140 267° West 426 490 36,000  Level FlightAware
09:40AM 64.0420 -8.5550 266° West 426 490 36,000  Level FlightAware
09:40AM 64.0390 -8.6930 267° West 426 490 36,000  Level FlightAware
09:41AM 64.0360 -8.8300 267° West 426 490 36,000  Level FlightAware
09:41AM 64.0330 -8.9680 267° West 426 490 36,000  Level FlightAware
09:42AM 64.0300 -9.1060 267° West 426 490 36,000  Level FlightAware
09:43AM 64.0270 -9.2430 267° West 426 490 36,000  Level FlightAware
09:43AM 64.0230 -9.3810 266° West 426 490 36,000  Level FlightAware
09:44AM 64.0200 -9.5220 267° West 426 490 36,000  Level FlightAware
09:44AM 64.0170 -9.6590 267° West 426 490 36,000  Level FlightAware
09:45AM 63.9950 -10.0830 263° West 426 490 36,000  Level FlightAware
09:45AM 63.9850 -10.2450 262° West 426 490 36,000  Level FlightAware
09:46AM 63.9740 -10.4030 261° West 425 489 36,000  Level FlightAware
09:47AM 63.9640 -10.5690 262° West 424 488 36,000  Level FlightAware
09:47AM 63.9550 -10.7010 261° West 424 488 36,000  Level FlightAware
09:48AM 63.9450 -10.8490 261° West 424 488 36,000  Level FlightAware
09:48AM 63.9320 -11.0250 261° West 424 488 36,000  Level FlightAware
09:49AM 63.9210 -11.1810 261° West 423 487 36,000  Level FlightAware
09:50AM 63.9110 -11.3220 261° West 422 486 36,000  Level FlightAware
09:50AM 63.9000 -11.4780 261° West 421 484 36,000  Level FlightAware
09:51AM 63.8880 -11.6370 260° West 421 484 36,000  Level FlightAware
09:51AM 63.8780 -11.7760 261° West 422 486 36,000  Level FlightAware
09:52AM 63.8650 -11.9430 260° West 422 486 36,000  Level FlightAware
09:52AM 63.8550 -12.0800 261° West 422 486 36,000  Level FlightAware
09:53AM 63.8420 -12.2370 259° West 421 484 36,000  Level FlightAware
09:54AM 63.8310 -12.3860 261° West 420 483 36,000  Level FlightAware
09:54AM 63.8190 -12.5290 259° West 419 482 36,000  Level FlightAware
09:55AM 63.8060 -12.6880 260° West 418 481 36,000  Level FlightAware
09:55AM 63.7930 -12.8490 260° West 418 481 36,000  Level FlightAware
09:56AM 63.7810 -12.9840 259° West 417 480 36,000  Level FlightAware
09:57AM 63.7680 -13.1410 259° West 417 480 36,000  Level FlightAware
09:57AM 63.7560 -13.2950 260° West 419 482 36,000  Level FlightAware
09:58AM 63.7540 -13.4320 268° West 420 483 36,000  Level FlightAware
09:58AM 63.7460 -13.5860 263° West 420 483 36,000  Level FlightAware
09:59AM 63.7320 -13.7440 259° West 419 482 36,000  Level FlightAware
09:59AM 63.7180 -13.8950 258° West 418 481 36,000  Level FlightAware
10:00AM 63.7040 -14.0500 259° West 416 479 36,000  Level FlightAware
10:01AM 63.6920 -14.1840 259° West 416 479 36,000  Level FlightAware
10:01AM 63.6780 -14.3330 258° West 416 479 36,000  Level FlightAware
10:02AM 63.6630 -14.4930 258° West 415 478 36,000  Level FlightAware
10:02AM 63.6480 -14.6470 258° West 415 478 36,000  Level FlightAware
10:03AM 63.6350 -14.7820 258° West 414 476 36,000  Level FlightAware
10:04AM 63.6200 -14.9330 257° West 414 476 36,000  Level FlightAware
10:04AM 63.6050 -15.0860 258° West 416 479 36,000  Level FlightAware
10:05AM 63.5930 -15.2050 257° West 417 480 36,000  Level FlightAware
10:05AM 63.5760 -15.3660 257° West 418 481 36,000  Level FlightAware
10:06AM 63.5610 -15.5150 257° West 418 481 36,000  Level FlightAware
10:06AM 63.5450 -15.6660 257° West 419 482 36,000  Level FlightAware
10:07AM 63.5290 -15.8200 257° West 419 482 36,000  Level FlightAware
10:08AM 63.5150 -15.9490 256° West 419 482 36,000  Level FlightAware
10:08AM 63.4990 -16.1060 257° West 418 481 36,000  Level FlightAware
10:09AM 63.4820 -16.2560 256° West 418 481 36,000  Level FlightAware
10:09AM 63.4660 -16.4060 257° West 418 481 36,000  Level FlightAware
10:10AM 63.4500 -16.5460 256° West 419 482 36,000  Level FlightAware
10:11AM 63.4320 -16.7060 256° West 419 482 36,000  Level FlightAware
10:11AM 63.4180 -16.8340 256° West 420 483 36,000  Level FlightAware
10:12AM 63.4000 -16.9870 255° West 419 482 36,000  Level FlightAware
10:12AM 63.3850 -17.1250 256° West 419 482 36,000  Level FlightAware
10:13AM 63.3670 -17.2790 255° West 419 482 36,000  Level FlightAware
10:13AM 63.3490 -17.4280 255° West 421 484 36,000  Level FlightAware
10:14AM 63.3330 -17.5650 255° West 423 487 36,000  Level FlightAware
10:15AM 63.3150 -17.7150 255° West 424 488 36,000  Level FlightAware
10:15AM 63.2980 -17.8510 255° West 425 489 36,000  Level FlightAware
10:16AM 63.2790 -18.0110 255° West 427 491 36,000  Level FlightAware
10:16AM 63.2590 -18.1710 255° West 425 489 36,000  Level FlightAware
10:17AM 63.2410 -18.3120 254° West 425 489 36,000  Level FlightAware
10:18AM 63.2230 -18.4550 254° West 424 488 36,000  Level FlightAware
10:18AM 63.2050 -18.5950 254° West 425 489 36,000  Level FlightAware
10:19AM 63.1870 -18.7400 255° West 424 488 36,000  Level FlightAware
10:19AM 63.1670 -18.8930 254° West 424 488 36,000  Level FlightAware
10:20AM 63.1490 -19.0270 253° West 425 489 36,000  Level FlightAware
10:21AM 63.1280 -19.1870 254° West 422 486 36,000  Level FlightAware
10:21AM 63.1100 -19.3200 253° West 420 483 36,000  Level FlightAware
10:22AM 63.0900 -19.4730 254° West 419 482 36,000  Level FlightAware
10:22AM 63.0740 -19.5910 253° West 420 483 36,000  Level FlightAware
10:23AM 63.0530 -19.7440 253° West 422 486 36,000  Level FlightAware
10:23AM 63.0330 -19.8910 253° West 423 487 36,000  Level FlightAware
10:24AM 63.0150 -20.0410 255° West 423 487 36,000  Level FlightAware
10:25AM 63.0050 -20.1890 262° West 425 489 36,000  Level FlightAware
10:25AM 62.9950 -20.3550 263° West 427 491 36,000  Level FlightAware
10:26AM 62.9860 -20.4930 262° West 426 490 36,000  Level FlightAware
10:26AM 62.9760 -20.6380 261° West 426 490 36,000  Level FlightAware
10:27AM 62.9650 -20.8020 262° West 425 489 36,000  Level FlightAware
10:28AM 62.9550 -20.9540 262° West 425 489 36,000  Level FlightAware
10:28AM 62.9450 -21.0920 261° West 425 489 36,000  Level FlightAware
10:29AM 62.9350 -21.2400 262° West 427 491 36,000  Level FlightAware
10:29AM 62.9240 -21.3960 261° West 427 491 36,000  Level FlightAware
10:30AM 62.9120 -21.5490 260° West 427 491 36,000  Level FlightAware
10:30AM 62.9030 -21.6790 261° West 425 489 36,000  Level FlightAware
10:31AM 62.8910 -21.8390 261° West 422 486 36,000  Level FlightAware
10:32AM 62.8790 -21.9970 261° West 420 483 36,000  Level FlightAware
10:32AM 62.8680 -22.1340 260° West 420 483 36,000  Level FlightAware
10:33AM 62.8580 -22.2670 261° West 420 483 36,000  Level FlightAware
10:33AM 62.8460 -22.4240 261° West 419 482 36,000  Level FlightAware
10:34AM 62.8340 -22.5730 260° West 419 482 36,000  Level FlightAware
10:35AM 62.8210 -22.7230 259° West 421 484 36,000  Level FlightAware
10:35AM 62.8100 -22.8570 260° West 421 484 36,000  Level FlightAware
10:36AM 62.7970 -23.0140 260° West 420 483 36,000  Level FlightAware
10:36AM 62.7850 -23.1570 260° West 421 484 36,000  Level FlightAware
10:37AM 62.7730 -23.3000 260° West 423 487 36,000  Level FlightAware
10:37AM 62.7600 -23.4490 259° West 423 487 36,000  Level FlightAware
10:38AM 62.7470 -23.5980 259° West 422 486 36,000  Level FlightAware
10:39AM 62.7330 -23.7490 259° West 420 483 36,000  Level FlightAware
10:39AM 62.7210 -23.8830 259° West 418 481 36,000  Level FlightAware
10:40AM 62.7080 -24.0300 259° West 417 480 36,000  Level FlightAware
10:40AM 62.6950 -24.1720 259° West 416 479 36,000  Level FlightAware
10:41AM 62.6830 -24.2990 258° West 415 478 36,000  Level FlightAware
10:41AM 62.6680 -24.4550 258° West 414 476 36,000  Level FlightAware
10:42AM 62.6540 -24.6010 258° West 414 476 36,000  Level FlightAware
10:43AM 62.6400 -24.7440 258° West 415 478 36,000  Level FlightAware
10:43AM 62.6270 -24.8750 258° West 415 478 36,000  Level FlightAware
10:44AM 62.6130 -25.0240 259° West 416 479 36,000  Level FlightAware
10:44AM 62.5980 -25.1710 258° West 417 480 36,000  Level FlightAware
10:45AM 62.5840 -25.3100 258° West 417 480 36,000  Level FlightAware
10:46AM 62.5690 -25.4580 258° West 417 480 36,000  Level FlightAware
10:46AM 62.5580 -25.5630 257° West 416 479 36,000  Level FlightAware
10:47AM 62.5390 -25.7450 257° West 416 479 36,000  Level FlightAware
10:47AM 62.5250 -25.8730 257° West 417 480 36,000  Level FlightAware
10:48AM 62.5060 -26.0540 257° West 417 480 36,000  Level FlightAware
10:49AM 62.4920 -26.1790 256° West 418 481 36,000  Level FlightAware
10:49AM 62.4760 -26.3310 257° West 419 482 36,000  Level FlightAware
10:50AM 62.4600 -26.4770 257° West 418 481 36,000  Level FlightAware
10:50AM 62.4440 -26.6140 256° West 417 480 36,000  Level FlightAware
10:51AM 62.4270 -26.7680 257° West 416 479 36,000  Level FlightAware
10:52AM 62.4130 -26.8940 257° West 416 479 36,000  Level FlightAware
10:52AM 62.3960 -27.0370 256° West 415 478 36,000  Level FlightAware
10:53AM 62.3780 -27.1890 256° West 416 479 36,000  Level FlightAware
10:53AM 62.3630 -27.3160 256° West 417 480 36,000  Level FlightAware
10:54AM 62.3470 -27.4580 256° West 417 480 36,000  Level FlightAware
10:54AM 62.3290 -27.6070 255° West 418 481 36,000  Level FlightAware
10:55AM 62.3120 -27.7470 255° West 419 482 36,000  Level FlightAware
10:56AM 62.2970 -27.8740 256° West 418 481 36,000  Level FlightAware
10:56AM 62.2790 -28.0180 255° West 416 479 36,000  Level FlightAware
10:57AM 62.2610 -28.1600 255° West 416 479 36,000  Level FlightAware
10:57AM 62.2460 -28.2830 255° West 416 479 36,000  Level FlightAware
10:58AM 62.2260 -28.4420 255° West 415 478 36,000  Level FlightAware
10:58AM 62.2120 -28.5520 255° West 415 478 36,000  Level FlightAware
10:59AM 62.1900 -28.7220 255° West 416 479 36,000  Level FlightAware
11:00AM 62.1740 -28.8460 255° West 416 479 36,000  Level FlightAware
11:00AM 62.1540 -28.9950 254° West 417 480 36,000  Level FlightAware
11:01AM 62.1370 -29.1260 255° West 416 479 36,000  Level FlightAware
11:01AM 62.1200 -29.2530 254° West 416 479 36,000  Level FlightAware
11:02AM 62.1000 -29.4030 254° West 417 480 36,000  Level FlightAware
11:03AM 62.0820 -29.5290 253° West 417 480 36,000  Level FlightAware
11:03AM 62.0660 -29.6430 253° West 417 480 36,000  Level FlightAware
11:04AM 62.0470 -29.7890 255° West 419 482 36,000  Level FlightAware
11:04AM 62.0260 -29.9420 254° West 420 483 36,000  Level FlightAware
11:05AM 62.0050 -30.0700 251° West 419 482 36,000  Level FlightAware
11:06AM 61.9850 -30.1920 251° West 419 482 36,000  Level FlightAware
11:06AM 61.9650 -30.3150 251° West 419 482 36,000  Level FlightAware
11:07AM 61.9460 -30.4340 251° West 419 482 36,000  Level FlightAware
11:07AM 61.9260 -30.5600 251° West 419 482 36,000  Level FlightAware
11:08AM 61.9070 -30.6760 251° West 419 482 36,000  Level FlightAware
11:09AM 61.8870 -30.7980 251° West 419 482 36,000  Level FlightAware
11:09AM 61.8690 -30.9110 251° West 419 482 36,000  Level FlightAware
11:10AM 61.8490 -31.0300 250° West 419 482 36,000  Level FlightAware
11:10AM 61.8290 -31.1550 251° West 419 482 36,000  Level FlightAware
11:11AM 61.8100 -31.2710 251° West 419 482 36,000  Level FlightAware
11:12AM 61.7900 -31.3960 251° West 419 482 36,000  Level FlightAware
11:12AM 61.7700 -31.5140 250° West 419 482 36,000  Level FlightAware
11:13AM 61.7510 -31.6330 251° West 419 482 36,000  Level FlightAware
11:13AM 61.7320 -31.7510 251° West 419 482 36,000  Level FlightAware
11:14AM 61.7130 -31.8700 251° West 419 482 36,000  Level FlightAware
11:17AM 61.5817 -32.4583 245° Southwest  Level Estimated
11:18AM 61.5281 -32.6938 245° Southwest  Level Estimated
11:19AM 61.4741 -32.9285 244° Southwest  Level Estimated
11:20AM 61.4197 -33.1623 244° Southwest  Level Estimated
11:21AM 61.3649 -33.3954 244° Southwest  Level Estimated
11:22AM 61.3097 -33.6276 244° Southwest  Level Estimated
11:23AM 61.2542 -33.8590 244° Southwest  Level Estimated
11:24AM 61.1982 -34.0896 243° Southwest  Level Estimated
11:25AM 61.1418 -34.3193 243° Southwest  Level Estimated
11:26AM 61.0851 -34.5482 243° Southwest  Level Estimated
11:27AM 61.0279 -34.7764 243° Southwest  Level Estimated
11:28AM 60.9704 -35.0037 243° Southwest  Level Estimated
11:29AM 60.9125 -35.2301 242° Southwest  Level Estimated
11:30AM 60.8542 -35.4558 242° Southwest  Level Estimated
11:31AM 60.7956 -35.6806 242° Southwest  Level Estimated
11:32AM 60.7365 -35.9046 242° Southwest  Level Estimated
11:33AM 60.6771 -36.1278 242° Southwest  Level Estimated
11:34AM 60.6173 -36.3501 241° Southwest  Level Estimated
11:35AM 60.5572 -36.5716 241° Southwest  Level Estimated
11:36AM 60.4967 -36.7923 241° Southwest  Level Estimated
11:37AM 60.4358 -37.0122 241° Southwest  Level Estimated
11:38AM 60.3746 -37.2313 241° Southwest  Level Estimated
11:39AM 60.3130 -37.4495 240° Southwest  Level Estimated
11:40AM 60.2510 -37.6669 240° Southwest  Level Estimated
11:41AM 60.1888 -37.8835 240° Southwest  Level Estimated
11:42AM 60.1261 -38.0992 240° Southwest  Level Estimated
11:43AM 60.0631 -38.3141 240° Southwest  Level Estimated
11:44AM 59.9997 -38.5283 239° Southwest  Level Estimated
11:45AM 59.9361 -38.7415 239° Southwest  Level Estimated
11:46AM 59.8720 -38.9540 239° Southwest  Level Estimated
11:47AM 59.8076 -39.1657 239° Southwest  Level Estimated
11:48AM 59.7429 -39.3765 239° Southwest  Level Estimated
11:49AM 59.6779 -39.5865 239° Southwest  Level Estimated
11:50AM 59.6125 -39.7957 238° Southwest  Level Estimated
11:51AM 59.5467 -40.0041 238° Southwest  Level Estimated
11:52AM 59.4807 -40.2117 238° Southwest  Level Estimated
11:53AM 59.4143 -40.4184 238° Southwest  Level Estimated
11:54AM 59.3476 -40.6244 238° Southwest  Level Estimated
11:55AM 59.2806 -40.8295 237° Southwest  Level Estimated
11:56AM 59.2132 -41.0339 237° Southwest  Level Estimated
11:57AM 59.1456 -41.2374 237° Southwest  Level Estimated
11:58AM 59.0776 -41.4401 237° Southwest  Level Estimated
11:59AM 59.0093 -41.6420 237° Southwest  Level Estimated
12:00PM 58.9407 -41.8431 237° Southwest  Level Estimated
12:01PM 58.8718 -42.0434 236° Southwest  Level Estimated
12:02PM 58.8025 -42.2430 236° Southwest  Level Estimated
12:03PM 58.7330 -42.4417 236° Southwest  Level Estimated
12:04PM 58.6632 -42.6396 236° Southwest  Level Estimated
12:05PM 58.5930 -42.8367 236° Southwest  Level Estimated
12:06PM 58.5225 -43.0331 236° Southwest  Level Estimated
12:07PM 58.4518 -43.2286 235° Southwest  Level Estimated
12:08PM 58.3808 -43.4234 235° Southwest  Level Estimated
12:09PM 58.3094 -43.6174 235° Southwest  Level Estimated
12:10PM 58.2378 -43.8106 235° Southwest  Level Estimated
12:11PM 58.1659 -44.0030 235° Southwest  Level Estimated
12:12PM 58.0937 -44.1946 235° Southwest  Level Estimated
12:13PM 58.0212 -44.3855 234° Southwest  Level Estimated
12:14PM 57.9484 -44.5756 234° Southwest  Level Estimated
12:15PM 57.8754 -44.7649 234° Southwest  Level Estimated
12:16PM 57.8020 -44.9535 234° Southwest  Level Estimated
12:17PM 57.7284 -45.1413 234° Southwest  Level Estimated
12:18PM 57.6545 -45.3283 234° Southwest  Level Estimated
12:19PM 57.5803 -45.5145 233° Southwest  Level Estimated
12:20PM 57.5059 -45.7000 233° Southwest  Level Estimated
12:21PM 57.4312 -45.8848 233° Southwest  Level Estimated
12:22PM 57.3562 -46.0688 233° Southwest  Level Estimated
12:23PM 57.2809 -46.2520 233° Southwest  Level Estimated
12:24PM 57.2054 -46.4345 233° Southwest  Level Estimated
12:25PM 57.1296 -46.6162 233° Southwest  Level Estimated
12:26PM 57.0536 -46.7972 232° Southwest  Level Estimated
12:27PM 56.9773 -46.9775 232° Southwest  Level Estimated
12:28PM 56.9007 -47.1570 232° Southwest  Level Estimated
12:29PM 56.8239 -47.3358 232° Southwest  Level Estimated
12:30PM 56.7468 -47.5138 232° Southwest  Level Estimated
12:31PM 56.6695 -47.6912 232° Southwest  Level Estimated
12:32PM 56.5920 -47.8677 231° Southwest  Level Estimated
12:33PM 56.5141 -48.0436 231° Southwest  Level Estimated
12:34PM 56.4361 -48.2188 231° Southwest  Level Estimated
12:35PM 56.3577 -48.3932 231° Southwest  Level Estimated
12:36PM 56.2792 -48.5669 231° Southwest  Level Estimated
12:37PM 56.2004 -48.7399 231° Southwest  Level Estimated
12:38PM 56.1213 -48.9122 231° Southwest  Level Estimated
12:39PM 56.0421 -49.0838 230° Southwest  Level Estimated
12:40PM 55.9626 -49.2547 230° Southwest  Level Estimated
12:41PM 55.8828 -49.4248 230° Southwest  Level Estimated
12:42PM 55.8028 -49.5943 230° Southwest  Level Estimated
12:43PM 55.7226 -49.7631 230° Southwest  Level Estimated
12:44PM 55.6421 -49.9312 230° Southwest  Level Estimated
12:45PM 55.5615 -50.0986 230° Southwest  Level Estimated
12:46PM 55.4805 -50.2653 229° Southwest  Level Estimated
12:47PM 55.3994 -50.4313 229° Southwest  Level Estimated
12:48PM 55.3181 -50.5967 229° Southwest  Level Estimated
12:49PM 55.2365 -50.7613 229° Southwest  Level Estimated
12:50PM 55.1547 -50.9253 229° Southwest  Level Estimated
12:51PM 55.0727 -51.0886 229° Southwest  Level Estimated
12:52PM 54.9904 -51.2513 229° Southwest  Level Estimated
12:53PM 54.9080 -51.4133 229° Southwest  Level Estimated
12:54PM 54.8253 -51.5746 228° Southwest  Level Estimated
12:55PM 54.7424 -51.7352 228° Southwest  Level Estimated
12:56PM 54.6593 -51.8952 228° Southwest  Level Estimated
12:57PM 54.5760 -52.0546 228° Southwest  Level Estimated
12:58PM 54.4925 -52.2133 228° Southwest  Level Estimated
12:59PM 54.4088 -52.3713 228° Southwest  Level Estimated
01:00PM 54.3249 -52.5288 228° Southwest  Level Estimated
01:01PM 54.2407 -52.6855 227° Southwest  Level Estimated
01:02PM 54.1564 -52.8416 227° Southwest  Level Estimated
01:03PM 54.0719 -52.9971 227° Southwest  Level Estimated
01:04PM 53.9872 -53.1520 227° Southwest  Level Estimated
01:05PM 53.9022 -53.3062 227° Southwest  Level Estimated
01:06PM 53.8171 -53.4598 227° Southwest  Level Estimated
01:07PM 53.7318 -53.6128 227° Southwest  Level Estimated
01:08PM 53.6463 -53.7652 227° Southwest  Level Estimated
01:09PM 53.5606 -53.9169 226° Southwest  Level Estimated
01:10PM 53.4747 -54.0680 226° Southwest  Level Estimated
01:11PM 53.3886 -54.2186 226° Southwest  Level Estimated
01:12PM 53.3023 -54.3685 226° Southwest  Level Estimated
01:12PM 52.9833 -54.3667 226° Southwest 490 564 36,000  Level Gander Center
01:13PM 53.2158 -54.5178 226° Southwest  Level Estimated
01:13PM 52.9000 -54.5333 230° Southwest 480 552 36,000  Level Gander Center
01:14PM 53.1292 -54.6665 226° Southwest  Level Estimated
01:14PM 52.8333 -54.7167 239° Southwest 480 552 36,000  Level Gander Center
01:15PM 53.0424 -54.8146 226° Southwest  Level Estimated
01:15PM 52.7333 -54.9000 228° Southwest 490 564 36,000  Level Gander Center
01:16PM 52.9545 -54.9636 226° Southwest  Level Estimated
01:16PM 52.6833 -55.0333 238° Southwest 500 575 36,000  Level Moncton Center
01:17PM 52.8663 -55.1121 226° Southwest  Level Estimated
01:17PM 52.5833 -55.2167 228° Southwest 500 575 36,000  Level Moncton Center
01:18PM 52.4833 -55.3667 222° Southwest 500 575 36,000  Level Moncton Center
01:19PM 52.3833 -55.5667 231° Southwest 500 575 36,000  Level Moncton Center
01:20PM 52.3000 -55.7167 228° Southwest 500 575 36,000  Level Moncton Center
01:21PM 52.2000 -55.8667 223° Southwest 500 575 36,000  Level Moncton Center
01:22PM 52.1167 -56.0500 234° Southwest 500 575 36,000  Level Moncton Center
01:23PM 52.0167 -56.2000 223° Southwest 490 564 36,000  Level Moncton Center
01:24PM 51.9167 -56.3833 229° Southwest 500 575 36,000  Level Moncton Center
01:25PM 51.8333 -56.5333 228° Southwest 500 575 36,000  Level Moncton Center
01:26PM 51.7333 -56.7167 229° Southwest 500 575 36,000  Level Moncton Center
01:27PM 51.6500 -56.8667 228° Southwest 500 575 36,000  Level Moncton Center
01:28PM 51.5500 -57.0500 229° Southwest 500 575 36,000  Level Moncton Center
01:29PM 51.4500 -57.2000 223° Southwest 500 575 36,000  Level Moncton Center
01:30PM 51.3500 -57.3500 223° Southwest 500 575 36,000  Level Moncton Center
01:31PM 51.2667 -57.5167 231° Southwest 490 564 36,000  Level Moncton Center
01:32PM 51.1833 -57.6667 228° Southwest 490 564 36,000  Level Moncton Center
01:33PM 51.0500 -57.8833 226° Southwest 490 564 36,000  Level Gander Center
01:34PM 50.9667 -58.0167 225° Southwest 490 564 36,000  Level Gander Center
01:35PM 50.8833 -58.1333 221° Southwest 500 575 36,000  Level Moncton Center
01:40PM 50.3850 -58.9970 221° Southwest 490 564 36,000  Level FlightAware
01:41PM 50.3200 -59.1010 226° Southwest 491 565 36,000  Level FlightAware
01:41PM 50.2610 -59.1930 225° Southwest 491 565 36,000  Level FlightAware
01:42PM 50.1940 -59.2970 225° Southwest 491 565 36,000  Level FlightAware
01:43PM 50.1450 -59.3740 225° Southwest 491 565 36,000  Level FlightAware
01:43PM 50.0960 -59.4510 225° Southwest 491 565 36,000  Level FlightAware
01:44PM 50.0450 -59.5290 224° Southwest 491 565 36,000  Level FlightAware
01:45PM 49.9940 -59.6100 226° Southwest 491 565 36,000  Level FlightAware
01:45PM 49.9430 -59.6890 225° Southwest 491 565 36,000  Level FlightAware
01:46PM 49.8970 -59.7610 225° Southwest 491 565 36,000  Level FlightAware
01:46PM 49.8470 -59.8370 224° Southwest 491 565 36,000  Level FlightAware
01:47PM 49.7970 -59.9150 225° Southwest 491 565 36,000  Level FlightAware
01:48PM 49.7480 -59.9910 225° Southwest 491 565 36,000  Level FlightAware
01:48PM 49.7010 -60.0630 225° Southwest 491 565 36,000  Level FlightAware
01:49PM 49.6490 -60.1430 225° Southwest 491 565 36,000  Level FlightAware
01:49PM 49.6030 -60.2150 225° Southwest 491 565 36,000  Level FlightAware
01:50PM 49.5520 -60.2930 225° Southwest 491 565 36,000  Level FlightAware
01:51PM 49.5010 -60.3730 226° Southwest 491 565 36,000  Level FlightAware
01:51PM 49.4510 -60.4480 224° Southwest 491 565 36,000  Level FlightAware
01:52PM 49.2333 -60.7167 224° Southwest 480 552 36,000  Level Gander Center
01:53PM 49.1500 -60.8333 223° Southwest 480 552 36,000  Level Moncton Center
01:54PM 49.0500 -60.9667 221° Southwest 480 552 36,000  Level Moncton Center
01:55PM 48.9667 -61.1000 226° Southwest 480 552 36,000  Level Moncton Center
01:56PM 48.8833 -61.2333 226° Southwest 470 541 36,000  Level Moncton Center
01:57PM 48.7500 -61.4333 225° Southwest 480 552 36,000  Level Gander Center
01:58PM 48.6833 -61.5333 225° Southwest 470 541 36,000  Level Moncton Center
01:59PM 48.5500 -61.6833 217° Southwest 480 552 36,000  Level Gander Center
02:00PM 48.4667 -61.8333 230° Southwest 470 541 36,000  Level Gander Center
02:01PM 48.4000 -61.9333 225° Southwest 480 552 36,000  Level Moncton Center
02:02PM 48.3000 -62.0500 218° Southwest 470 541 36,000  Level Moncton Center
02:03PM 48.2000 -62.2167 228° Southwest 480 552 36,000  Level Moncton Center
02:04PM 48.1000 -62.3333 218° Southwest 480 552 36,000  Level Moncton Center
02:05PM 48.0000 -62.4667 222° Southwest 470 541 36,000  Level Moncton Center
02:06PM 47.9000 -62.6167 225° Southwest 480 552 36,000  Level Moncton Center
02:07PM 47.8000 -62.7500 222° Southwest 470 541 36,000  Level Moncton Center
02:08PM 47.7000 -62.8833 222° Southwest 480 552 36,000  Level Moncton Center
02:09PM 47.6000 -63.0000 218° Southwest 480 552 36,000  Level Moncton Center
02:10PM 47.5167 -63.1333 227° Southwest 480 552 36,000  Level Moncton Center
02:11PM 47.4167 -63.2833 225° Southwest 480 552 36,000  Level Moncton Center
02:12PM 47.3167 -63.4167 222° Southwest 480 552 36,000  Level Moncton Center
02:13PM 47.2167 -63.5333 218° Southwest 480 552 36,000  Level Moncton Center
02:14PM 47.1167 -63.6833 226° Southwest 490 564 36,000  Level Moncton Center
02:15PM 47.0000 -63.8000 214° Southwest 490 564 36,000  Level Moncton Center
02:16PM 46.9167 -63.9333 228° Southwest 490 564 36,000  Level Moncton Center
02:17PM 46.8167 -64.0833 226° Southwest 490 564 36,000  Level Moncton Center
02:18PM 46.7000 -64.2000 214° Southwest 490 564 36,000  Level Moncton Center
02:19PM 46.6000 -64.3167 219° Southwest 490 564 36,000  Level Moncton Center
02:20PM 46.5000 -64.4667 226° Southwest 490 564 36,000  Level Moncton Center
02:21PM 46.4000 -64.5833 219° Southwest 490 564 36,000  Level Moncton Center
02:22PM 46.3000 -64.7333 226° Southwest 490 564 36,000  Level Moncton Center
02:28PM 45.6870 -65.4990 226° Southwest 486 559 36,000  Level FlightAware
02:28PM 45.6180 -65.5830 220° Southwest 487 560 36,000  Level FlightAware
02:29PM 45.5650 -65.6470 220° Southwest 486 559 36,000  Level FlightAware
02:29PM 45.4960 -65.7300 220° Southwest 486 559 36,000  Level FlightAware
02:30PM 45.4440 -65.7930 220° Southwest 487 560 36,000  Level FlightAware
02:31PM 45.3750 -65.8760 220° Southwest 487 560 36,000  Level FlightAware
02:31PM 45.3220 -65.9400 220° Southwest 487 560 36,000  Level FlightAware
02:32PM 45.2610 -66.0120 220° Southwest 487 560 36,000  Level FlightAware
02:32PM 45.1990 -66.0860 220° Southwest 486 559 36,000  Level FlightAware
02:33PM 45.1320 -66.1650 220° Southwest 487 560 36,000  Level FlightAware
02:34PM 45.0780 -66.2290 220° Southwest 488 562 36,000  Level FlightAware
02:34PM 45.0180 -66.3010 220° Southwest 489 563 36,000  Level FlightAware
02:35PM 44.9550 -66.3740 219° Southwest 490 564 36,000  Level FlightAware
02:35PM 44.8850 -66.4560 220° Southwest 488 562 36,000  Level FlightAware
02:36PM 44.8330 -66.5170 220° Southwest 488 562 36,000  Level FlightAware
02:36PM 44.7630 -66.6000 220° Southwest 488 562 36,000  Level FlightAware
02:37PM 44.7090 -66.6620 219° Southwest 489 563 36,000  Level FlightAware
02:38PM 44.6460 -66.7360 220° Southwest 496 571 36,000  Level FlightAware
02:38PM 44.5830 -66.8080 219° Southwest 497 572 36,000  Level FlightAware
02:39PM 44.5220 -66.8790 220° Southwest 497 572 36,000  Level FlightAware
02:39PM 44.4590 -66.9510 219° Southwest 497 572 36,000  Level FlightAware
02:40PM 44.3990 -67.0220 220° Southwest 497 572 36,000  Level FlightAware
02:41PM 44.3410 -67.1020 225° Southwest 492 566 36,000  Level FlightAware
02:41PM 44.2830 -67.1830 225° Southwest 499 574 36,000  Level FlightAware
02:42PM 44.2260 -67.2610 224° Southwest 502 578 36,000  Level FlightAware
02:42PM 44.1680 -67.3410 225° Southwest 498 573 36,000  Level FlightAware
02:43PM 44.1100 -67.4200 224° Southwest 499 574 36,000  Level FlightAware
02:43PM 44.0500 -67.5010 224° Southwest 502 578 36,000  Level FlightAware
02:44PM 43.9840 -67.5910 224° Southwest 498 573 36,000  Level FlightAware
02:45PM 43.9340 -67.6590 224° Southwest 497 572 36,000  Level FlightAware
02:45PM 43.8770 -67.7350 224° Southwest 495 570 36,000  Level FlightAware
02:46PM 43.8180 -67.8140 224° Southwest 496 571 36,000  Level FlightAware
02:46PM 43.7600 -67.8920 224° Southwest 498 573 36,000  Level FlightAware
02:47PM 43.7000 -67.9710 224° Southwest 500 575 36,000  Level FlightAware
02:48PM 43.6340 -68.0590 224° Southwest 502 578 36,000  Level FlightAware
02:48PM 43.5830 -68.1280 224° Southwest 502 578 36,000  Level FlightAware
02:49PM 43.5310 -68.1960 223° Southwest 509 586 36,000  Level FlightAware
02:50PM 43.4490 -68.3030 223° Southwest 511 588 36,000  Level FlightAware
02:50PM 43.5070 -68.2277 43° Northeast 514 592 36,000  Level FlightAware ADS-B (KBOS)
02:50PM 43.3680 -68.4110 224° Southwest 513 590 36,000  Level FlightAware
02:51PM 43.2890 -68.5140 224° Southwest 513 590 36,000  Level FlightAware
02:51PM 43.2703 -68.5382 223° Southwest 511 588 36,000  Level FlightAware ADS-B (KBOS)
02:52PM 43.2210 -68.6020 223° Southwest 510 587 36,000  Level FlightAware
02:52PM 43.2080 -68.6193 224° Southwest 510 587 36,000  Level FlightAware ADS-B (KBOS)
02:52PM 43.1526 -68.6911 223° Southwest 509 586 36,000  Level FlightAware ADS-B (KBOS)
02:53PM 43.0840 -68.7800 223° Southwest 507 583 36,000  Level FlightAware ADS-B (KBOS)
02:54PM 43.0068 -68.8797 223° Southwest 505 581 36,000  Level FlightAware ADS-B (KBOS)
02:54PM 42.9472 -68.9564 223° Southwest 504 580 36,000  Level FlightAware ADS-B (KBOS)
02:55PM 42.8991 -69.0182 223° Southwest 503 579 36,000  Level FlightAware ADS-B (KBOS)
02:55PM 42.8275 -69.1099 223° Southwest 501 577 36,000  Level FlightAware ADS-B (KBOS)
02:56PM 42.7742 -69.1778 223° Southwest 500 575 36,000  Level FlightAware ADS-B (KBOS)
02:57PM 42.7182 -69.2491 223° Southwest 499 574 36,000  Level FlightAware ADS-B (KBOS)
02:57PM 42.6230 -69.3700 223° Southwest 498 573 36,000  Level FlightAware
02:58PM 42.6455 -69.3414 43° Northeast 498 573 36,000  Level FlightAware ADS-B (KBOS)
02:58PM 42.5622 -69.4467 223° Southwest 497 572 36,000  Level FlightAware ADS-B (KBOS)
02:59PM 42.5070 -69.5160 223° Southwest 498 573 36,000  Level FlightAware
02:59PM 42.4715 -69.5611 223° Southwest 497 572 36,000  Level FlightAware ADS-B (KBOS)
02:59PM 42.4212 -69.6243 223° Southwest 497 572 36,000  Level FlightAware ADS-B (KBOS)
03:00PM 42.3692 -69.6894 223° Southwest 495 570 36,000  Level FlightAware ADS-B (KBOS)
03:01PM 42.3194 -69.7516 223° Southwest 495 570 36,000  Level FlightAware ADS-B (KBOS)
03:01PM 42.2671 -69.8168 223° Southwest 495 570 36,000  Level FlightAware ADS-B (KBOS)
03:02PM 42.2162 -69.8802 223° Southwest 495 570 36,000  Level FlightAware ADS-B (KBOS)
03:02PM 42.1645 -69.9443 223° Southwest 495 570 36,000  Level FlightAware ADS-B (KBOS)
03:03PM 42.1132 -70.0078 223° Southwest 495 570 36,000  Level FlightAware ADS-B (KBOS)
03:03PM 42.0612 -70.0720 223° Southwest 493 567 36,000  Level FlightAware ADS-B (KBOS)
03:04PM 41.9916 -70.1577 222° Southwest 494 568 36,000  Level FlightAware ADS-B (KBOS)
03:04PM 41.9210 -70.2470 223° Southwest 495 570 36,000  Level FlightAware
03:05PM 41.9123 -70.2594 227° Southwest 496 571 36,000  Level FlightAware ADS-B (KBOS)
03:05PM 41.8590 -70.3464 231° Southwest 495 570 36,000  Level FlightAware ADS-B (KBOS)
03:06PM 41.8046 -70.4431 233° Southwest 496 571 36,000  Level FlightAware ADS-B (KBOS)
03:06PM 41.7614 -70.5182 232° Southwest 496 571 36,000  Level FlightAware ADS-B (KBOS)
03:07PM 41.7223 -70.5854 232° Southwest 497 572 36,000  Level FlightAware ADS-B (KBOS)
03:07PM 41.6745 -70.6676 232° Southwest 497 572 36,000  Level FlightAware ADS-B (KBOS)
03:08PM 41.6270 -70.7490 232° Southwest 496 571 36,000  Level FlightAware
03:09PM 41.5750 -70.8380 232° Southwest 495 570 36,000  Level FlightAware
03:09PM 41.5240 -70.9240 232° Southwest 494 568 36,000  Level FlightAware
03:10PM 41.4740 -71.0090 232° Southwest 495 570 36,000  Level FlightAware
03:10PM 41.4310 -71.0820 232° Southwest 497 572 36,000  Level FlightAware
03:11PM 41.4050 -71.1260 232° Southwest 497 572 36,000  Level FlightAware
03:11PM 41.3340 -71.2440 231° Southwest 499 574 36,000  Level FlightAware
03:12PM 41.2910 -71.3160 232° Southwest 498 573 36,000  Level FlightAware
03:13PM 41.2330 -71.4140 232° Southwest 497 572 36,000  Level FlightAware
03:13PM 41.1810 -71.5000 231° Southwest 497 572 36,000  Level FlightAware
03:13PM 41.1716 -71.5166 233° Southwest 498 573 36,000  Level FlightAware ADS-B (KSNC)
03:14PM 41.0830 -71.6630 231° Southwest 498 573 36,000  Level FlightAware
03:14PM 41.0700 -71.6854 232° Southwest 499 574 36,000  Level FlightAware ADS-B (KSNC)
03:15PM 41.0193 -71.7692 231° Southwest 498 573 36,000  Level FlightAware ADS-B (KSNC)
03:16PM 40.9399 -71.9001 231° Southwest 497 572 36,000  Level FlightAware ADS-B (KSNC)
03:17PM 40.8981 -71.9688 231° Southwest 497 572 36,000  Level FlightAware ADS-B (KSNC)
03:17PM 40.8290 -72.0810 231° Southwest 497 572 36,000  Level FlightAware
03:17PM 40.8117 -72.1100 232° Southwest 498 573 36,000  Level FlightAware ADS-B (KSNC)
03:18PM 40.7521 -72.2074 231° Southwest 497 572 36,000  Level FlightAware ADS-B (KSNC)
03:19PM 40.6869 -72.3136 231° Southwest 495 570 36,000  Level FlightAware ADS-B (KSNC)
03:19PM 40.6426 -72.3854 231° Southwest 495 570 36,000  Level FlightAware ADS-B (KSNC)
03:20PM 40.5986 -72.4563 231° Southwest 495 570 36,000  Level FlightAware ADS-B (KSNC)
03:21PM 40.5412 -72.5488 231° Southwest 495 570 36,000  Level FlightAware ADS-B (KSNC)
03:21PM 40.4847 -72.6398 231° Southwest 495 570 36,000  Level FlightAware ADS-B (KSNC)
03:22PM 40.4248 -72.7357 231° Southwest 494 568 36,000  Level FlightAware ADS-B (KSNC)
03:23PM 40.3656 -72.8303 231° Southwest 492 566 36,000  Level FlightAware ADS-B (KSNC)
03:23PM 40.3085 -72.9213 231° Southwest 493 567 36,000  Level FlightAware ADS-B (KSNC)
03:24PM 40.2351 -73.0378 230° Southwest 495 570 36,000  Level FlightAware ADS-B (KSNC)
03:25PM 40.1925 -73.1052 230° Southwest 497 572 36,000  Level FlightAware ADS-B (KSNC)
03:25PM 40.1207 -73.2183 230° Southwest 497 572 36,000  Level FlightAware ADS-B (KSNC)
03:26PM 40.0630 -73.2930 225° Southwest 497 572 36,000  Level FlightAware
03:26PM 40.0212 -73.3386 220° Southwest 497 572 36,000  Level FlightAware ADS-B (KSNC)
03:27PM 39.9430 -73.4290 222° Southwest 495 570 36,000  Level FlightAware
03:28PM 39.8865 -73.4936 221° Southwest 495 570 36,000  Level FlightAware ADS-B (KSNC)
03:28PM 39.8270 -73.5600 221° Southwest 496 571 36,000  Level FlightAware
03:29PM 39.7631 -73.6308 220° Southwest 499 574 36,000  Level FlightAware ADS-B (KSNC)
03:29PM 39.7010 -73.7000 221° Southwest 498 573 36,000  Level FlightAware
03:30PM 39.6370 -73.7700 220° Southwest 500 575 36,000  Level FlightAware
03:31PM 39.5780 -73.8350 220° Southwest 499 574 36,000  Level FlightAware
03:31PM 39.5220 -73.8970 221° Southwest 497 572 36,000  Level FlightAware
03:32PM 39.4500 -73.9760 220° Southwest 495 570 36,000  Level FlightAware
03:32PM 39.3910 -74.0410 220° Southwest 493 567 36,000  Level FlightAware
03:33PM 39.3360 -74.1010 220° Southwest 492 566 36,000  Level FlightAware
03:34PM 39.2650 -74.1780 220° Southwest 490 564 36,000  Level FlightAware
03:34PM 39.2390 -74.2070 221° Southwest 489 563 36,000  Level FlightAware
03:35PM 39.1510 -74.3020 220° Southwest 491 565 36,000  Level FlightAware
03:35PM 39.0940 -74.3640 220° Southwest 491 565 36,000  Level FlightAware
03:36PM 39.0270 -74.4370 220° Southwest 492 566 36,000  Level FlightAware
03:37PM 38.9570 -74.5110 219° Southwest 494 568 36,000  Level FlightAware
03:37PM 38.9010 -74.5720 220° Southwest 495 570 36,000  Level FlightAware
03:38PM 38.8400 -74.6370 220° Southwest 489 563 36,000  Level FlightAware
03:38PM 38.7590 -74.7230 220° Southwest 496 571 36,000  Level FlightAware
03:39PM 38.6980 -74.7880 220° Southwest 497 572 36,000  Level FlightAware
03:40PM 38.6340 -74.8570 220° Southwest 499 574 36,000  Level FlightAware
03:40PM 38.5690 -74.9260 220° Southwest 502 578 36,000  Level FlightAware
03:41PM 38.5070 -74.9920 220° Southwest 502 578 36,000  Level FlightAware
03:41PM 38.4560 -75.0450 219° Southwest 504 580 36,000  Level FlightAware
03:42PM 38.3840 -75.1220 220° Southwest 504 580 36,000  Level FlightAware
03:43PM 38.3170 -75.1910 219° Southwest 507 583 36,000  Level FlightAware
03:43PM 38.2590 -75.2530 220° Southwest 510 587 36,000  Level FlightAware
03:44PM 38.1940 -75.3210 219° Southwest 512 589 36,000  Level FlightAware
03:44PM 38.1130 -75.4060 220° Southwest 509 586 36,000  Level FlightAware
03:45PM 38.0550 -75.4620 217° Southwest 511 588 36,000  Level FlightAware
03:46PM 37.9810 -75.5140 209° Southwest 512 589 36,000  Level FlightAware
03:46PM 37.9080 -75.5640 208° Southwest 513 590 36,000  Level FlightAware
03:47PM 37.8350 -75.6140 208° Southwest 514 592 36,000  Level FlightAware
03:47PM 37.7510 -75.6720 209° Southwest 514 592 36,000  Level FlightAware
03:48PM 37.6770 -75.7220 208° Southwest 514 592 36,000  Level FlightAware
03:48PM 37.6160 -75.7640 209° Southwest 514 592 36,000  Level FlightAware
03:49PM 37.5310 -75.8210 208° Southwest 514 592 36,000  Level FlightAware
03:50PM 37.4660 -75.8650 208° Southwest 513 590 36,000  Level FlightAware
03:50PM 37.3750 -75.9270 208° Southwest 512 589 36,000  Level FlightAware
03:51PM 37.2980 -75.9780 208° Southwest 513 590 36,000  Level FlightAware
03:52PM 37.2250 -76.0270 208° Southwest 515 593 36,000  Level FlightAware
03:52PM 37.1450 -76.0810 208° Southwest 516 594 36,000  Level FlightAware
03:53PM 37.0550 -76.1410 208° Southwest 516 594 36,000  Level FlightAware
03:53PM 36.9840 -76.1880 208° Southwest 526 605 36,000  Level FlightAware
03:54PM 36.9100 -76.2370 208° Southwest 525 604 36,000  Level FlightAware
03:55PM 36.8200 -76.2970 208° Southwest 525 604 36,000  Level FlightAware
03:55PM 36.7370 -76.3520 208° Southwest 526 605 36,000  Level FlightAware
03:56PM 36.6690 -76.3970 208° Southwest 525 604 36,000  Level FlightAware
03:57PM 36.5790 -76.4550 207° Southwest 525 604 36,000  Level FlightAware
03:57PM 36.4830 -76.5190 208° Southwest 523 602 36,000  Level FlightAware
03:58PM 36.4020 -76.5710 207° Southwest 524 603 36,000  Level FlightAware
03:59PM 36.3400 -76.6100 207° Southwest 524 603 36,000  Level FlightAware
03:59PM 36.2720 -76.6530 207° Southwest 524 603 36,000  Level FlightAware
04:00PM 36.2060 -76.6950 207° Southwest 524 603 36,000  Level FlightAware
04:00PM 36.1400 -76.7370 207° Southwest 524 603 36,000  Level FlightAware
04:01PM 35.9820 -76.8440 209° Southwest 527 606 36,000  Level FlightAware
04:02PM 35.9140 -76.8870 207° Southwest 527 606 36,000  Level FlightAware
04:02PM 35.8480 -76.9290 207° Southwest 527 606 36,000  Level FlightAware
04:03PM 35.7790 -76.9720 207° Southwest 527 606 36,000  Level FlightAware
04:04PM 35.7130 -77.0130 207° Southwest 527 606 36,000  Level FlightAware
04:04PM 35.6280 -77.0670 207° Southwest 527 606 36,000  Level FlightAware
04:05PM 35.4890 -77.1610 209° Southwest 529 609 36,000  Level FlightAware
04:06PM 35.3840 -77.2280 207° Southwest 527 606 36,000  Level FlightAware
04:07PM 35.2890 -77.2880 207° Southwest 527 606 36,000  Level FlightAware
04:07PM 35.1900 -77.3510 207° Southwest 525 604 36,000  Level FlightAware
04:08PM 35.1250 -77.3920 207° Southwest 524 603 36,000  Level FlightAware
04:08PM 35.0650 -77.4290 207° Southwest 523 602 36,000  Level FlightAware
04:09PM 34.9750 -77.4640 198° South 524 603 36,000  Level FlightAware
04:10PM 34.8800 -77.4970 196° South 524 603 36,000  Level FlightAware
04:10PM 34.8100 -77.5220 196° South 524 603 36,000  Level FlightAware
04:11PM 34.7180 -77.5540 196° South 524 603 36,000  Level FlightAware
04:11PM 34.6440 -77.5810 197° South 523 602 36,000  Level FlightAware
04:12PM 34.5580 -77.6110 196° South 523 602 36,000  Level FlightAware
04:13PM 34.4790 -77.6380 196° South 522 601 36,000  Level FlightAware
04:13PM 34.4010 -77.6660 196° South 521 600 36,000  Level FlightAware
04:14PM 34.3130 -77.6970 196° South 521 600 36,000  Level FlightAware
04:14PM 34.2420 -77.7210 196° South 521 600 36,000  Level FlightAware
04:15PM 34.1650 -77.7480 196° South 522 601 36,000  Level FlightAware
04:16PM 34.0840 -77.7760 196° South 522 601 36,000  Level FlightAware
04:16PM 33.9850 -77.8110 196° South 521 600 36,000  Level FlightAware
04:17PM 33.9150 -77.8350 196° South 522 601 36,000  Level FlightAware
04:17PM 33.8150 -77.8690 196° South 522 601 36,000  Level FlightAware
04:18PM 33.7470 -77.8930 196° South 522 601 36,000  Level FlightAware
04:18PM 33.6720 -77.9190 196° South 523 602 36,000  Level FlightAware
04:19PM 33.5860 -77.9480 196° South 523 602 36,000  Level FlightAware
04:20PM 33.5070 -77.9750 196° South 523 602 36,000  Level FlightAware
04:20PM 33.4140 -78.0070 196° South 523 602 36,000  Level FlightAware
04:21PM 33.3450 -78.0310 196° South 523 602 36,000  Level FlightAware
04:21PM 33.2530 -78.0620 196° South 522 601 36,000  Level FlightAware
04:22PM 33.1250 -78.1060 196° South 521 600 36,000  Level FlightAware
04:24PM 32.9280 -78.1720 196° South 519 597 36,000  Level FlightAware
04:24PM 32.8490 -78.1990 196° South 518 596 36,000  Level FlightAware
04:25PM 32.7540 -78.2310 196° South 518 596 36,000  Level FlightAware
04:26PM 32.6580 -78.2620 195° South 518 596 36,000  Level FlightAware
04:26PM 32.5820 -78.2890 197° South 519 597 36,000  Level FlightAware
04:27PM 32.5070 -78.3140 196° South 519 597 36,000  Level FlightAware
04:27PM 32.4120 -78.3460 196° South 518 596 36,000  Level FlightAware
04:28PM 32.3160 -78.3780 196° South 517 595 36,000  Level FlightAware
04:29PM 32.2380 -78.4040 196° South 516 594 36,000  Level FlightAware
04:29PM 32.1650 -78.4270 195° South 516 594 36,000  Level FlightAware
04:30PM 32.0950 -78.4490 195° South 516 594 36,000  Level FlightAware
04:30PM 32.0240 -78.4710 195° South 516 594 36,000  Level FlightAware
04:31PM 31.9540 -78.4930 195° South 516 594 36,000  Level FlightAware
04:32PM 31.8830 -78.5160 195° South 516 594 36,000  Level FlightAware
04:32PM 31.8130 -78.5380 195° South 516 594 36,000  Level FlightAware
04:33PM 31.6260 -78.6050 197° South 514 592 36,000  Level FlightAware
04:34PM 31.5560 -78.6270 195° South 514 592 36,000  Level FlightAware
04:34PM 31.4830 -78.6500 195° South 514 592 36,000  Level FlightAware
04:35PM 31.4130 -78.6720 195° South 514 592 36,000  Level FlightAware
04:35PM 31.3430 -78.6940 195° South 514 592 36,000  Level FlightAware
04:36PM 31.2730 -78.7160 195° South 514 592 36,000  Level FlightAware
04:37PM 31.2020 -78.7380 195° South 514 592 36,000  Level FlightAware
04:37PM 31.1300 -78.7600 195° South 514 592 36,000  Level FlightAware
04:38PM 31.0400 -78.7890 195° South 514 592 36,000  Level FlightAware
04:39PM 30.9680 -78.8110 195° South 514 592 36,000  Level FlightAware
04:39PM 30.8980 -78.8330 195° South 514 592 36,000  Level FlightAware
04:40PM 30.8270 -78.8550 195° South 514 592 36,000  Level FlightAware
04:40PM 30.7550 -78.8780 195° South 514 592 36,000  Level FlightAware
04:41PM 30.6850 -78.8990 194° South 514 592 36,000  Level FlightAware
04:42PM 30.6150 -78.9210 195° South 514 592 36,000  Level FlightAware
04:42PM 30.5440 -78.9430 195° South 514 592 36,000  Level FlightAware
04:44PM 30.1836 -79.0994 195° South 525 604 36,000  Level Miami Center
04:45PM 30.0492 -79.1542 199° South 518 596 36,000  Level Miami Center
04:46PM 29.9192 -79.2064 199° South 518 596 36,000  Level Miami Center
04:47PM 29.7869 -79.2608 200° South 506 582 36,000  Level Miami Center
04:52PM 29.0420 -79.5340 200° South 506 582 36,000  Level FlightAware
04:53PM 28.9620 -79.5640 198° South 506 582 36,000  Level FlightAware
04:53PM 28.8940 -79.5890 198° South 506 582 36,000  Level FlightAware
04:54PM 28.7830 -79.6310 198° South 505 581 36,000  Level FlightAware
04:54PM 28.7040 -79.6610 198° South 511 588 36,000  Level FlightAware
04:55PM 28.6230 -79.6910 198° South 505 581 36,000  Level FlightAware
04:56PM 28.5440 -79.7200 198° South 505 581 36,000  Level FlightAware
04:56PM 28.4780 -79.7450 198° South 505 581 36,000  Level FlightAware
04:57PM 28.4070 -79.7710 198° South 505 581 36,000  Level FlightAware
04:57PM 28.3290 -79.8000 198° South 505 581 36,000  Level FlightAware
04:58PM 28.2390 -79.8340 198° South 511 588 36,000  Level FlightAware
04:58PM 28.1750 -79.8570 198° South 511 588 36,000  Level FlightAware
04:59PM 28.0940 -79.8870 198° South 511 588 36,000  Level FlightAware
05:00PM 28.0110 -79.9170 198° South 504 580 36,000  Level FlightAware
05:00PM 27.9240 -79.9500 199° South 504 580 36,000  Level FlightAware
05:01PM 27.8580 -79.9740 198° South 504 580 36,000  Level FlightAware
05:01PM 27.7780 -80.0030 198° South 511 588 36,000  Level FlightAware
05:02PM 27.7010 -80.0310 198° South 511 588 36,000  Level FlightAware
05:03PM 27.6070 -80.0660 198° South 511 588 36,000  Level FlightAware
05:03PM 27.5480 -80.0870 198° South 511 588 36,000  Level FlightAware
05:04PM 27.4530 -80.1220 198° South 510 587 36,000  Level FlightAware
05:04PM 27.3980 -80.1420 198° South 508 585 36,000  Level FlightAware
05:05PM 27.3170 -80.1710 198° South 509 586 36,000  Level FlightAware
05:05PM 27.2310 -80.2130 203° Southwest 498 573 36,000  Level FlightAware
05:06PM 27.1710 -80.2510 209° Southwest 497 572 36,000  Level FlightAware
05:06PM 27.0990 -80.2950 209° Southwest 496 571 36,000  Level FlightAware
05:07PM 27.0270 -80.3400 209° Southwest 496 571 36,000  Level FlightAware
05:08PM 26.9510 -80.3870 209° Southwest 495 570 36,000  Level FlightAware
05:08PM 26.8660 -80.4400 209° Southwest 496 571 36,000  Level FlightAware
05:09PM 26.7950 -80.4840 209° Southwest 497 572 36,000  Level FlightAware
05:10PM 26.7250 -80.5280 209° Southwest 498 573 36,000  Level FlightAware
05:10PM 26.6540 -80.5730 210° Southwest 497 572 36,000  Level FlightAware
05:10PM 26.6130 -80.5990 210° Southwest 497 572 36,000  Level FlightAware
05:11PM 26.5190 -80.6580 209° Southwest 503 579 36,000  Level FlightAware
05:12PM 26.4510 -80.7020 210° Southwest 501 577 36,000  Level FlightAware
05:12PM 26.3770 -80.7490 210° Southwest 501 577 36,000  Level FlightAware
05:13PM 26.3040 -80.8080 216° Southwest 497 572 36,000  Level FlightAware
05:14PM 26.2480 -80.8550 217° Southwest 499 574 36,000  Level FlightAware
05:14PM 26.1740 -80.9160 216° Southwest 502 578 36,000  Level FlightAware
05:15PM 26.1170 -80.9630 217° Southwest 498 573 36,000  Level FlightAware
05:15PM 26.0560 -81.0070 213° Southwest 504 580 36,000  Level FlightAware
05:16PM 25.9810 -81.0640 214° Southwest 496 571 36,000  Level FlightAware
05:17PM 25.9050 -81.1210 214° Southwest 502 578 36,000  Level FlightAware
05:17PM 25.8380 -81.1710 214° Southwest 504 580 36,000  Level FlightAware
05:18PM 25.7780 -81.2160 214° Southwest 505 581 36,000  Level FlightAware
05:18PM 25.7090 -81.2680 214° Southwest 504 580 36,000  Level FlightAware
05:19PM 25.6420 -81.3180 214° Southwest 504 580 36,000  Level FlightAware
05:19PM 25.5640 -81.3760 214° Southwest 502 578 36,000  Level FlightAware
05:20PM 25.5070 -81.4180 214° Southwest 502 578 36,000  Level FlightAware
05:21PM 25.4380 -81.4690 214° Southwest 502 578 36,000  Level FlightAware
05:21PM 25.3610 -81.5260 214° Southwest 501 577 36,000 -180 Level FlightAware
05:22PM 25.3040 -81.5680 214° Southwest 500 575 35,800 -660 Descending FlightAware
05:22PM 25.2380 -81.6170 214° Southwest 503 579 35,300 -1,020 Descending FlightAware
05:23PM 25.1680 -81.6690 214° Southwest 502 578 34,600 -1,200 Descending FlightAware
05:24PM 25.0910 -81.7250 213° Southwest 508 585 33,800 -1,260 Descending FlightAware
05:24PM 25.0310 -81.7690 214° Southwest 503 579 33,200 -1,200 Descending FlightAware
05:25PM 24.9630 -81.8190 214° Southwest 502 578 32,500 -1,200 Descending FlightAware
05:25PM 24.9050 -81.8600 213° Southwest 489 563 31,900 -1,440 Descending FlightAware
05:25PM 24.8620 -81.8760 199° South 493 567 31,300 -1,980 Descending FlightAware
05:26PM 24.8290 -81.8790 185° South 482 555 30,800 -1,800 Descending FlightAware
05:26PM 24.7490 -81.8750 177° South 480 552 29,800 -1,680 Descending FlightAware
05:27PM 24.6770 -81.8700 176° South 465 535 28,900 -1,740 Descending FlightAware
05:27PM 24.6030 -81.8640 176° South 465 535 27,900 -1,560 Descending FlightAware
05:28PM 24.5210 -81.8720 185° South 440 506 27,000 -1,500 Descending FlightAware
05:28PM 24.4900 -81.8870 204° Southwest 441 507 26,500 -1,920 Descending FlightAware
05:29PM 24.4630 -81.9100 218° Southwest 428 493 26,000 -1,440 Descending FlightAware
05:29PM 24.4200 -81.9670 230° Southwest 409 471 25,300 -1,440 Descending FlightAware
05:30PM 24.3870 -82.0090 229° Southwest 404 465 24,500 -2,340 Descending FlightAware
05:30PM 24.3300 -82.0850 231° Southwest 413 475 22,500 -1,680 Descending FlightAware
05:31PM 24.2810 -82.1500 230° Southwest 409 471 22,000 -1,560 Descending FlightAware
05:32PM 24.2240 -82.2250 230° Southwest 389 448 20,200 -1,380 Descending FlightAware
05:33PM 24.1880 -82.2730 231° Southwest 389 448 20,200  Level FlightAware
05:33PM 24.1540 -82.3200 232° Southwest 389 448 20,200  Level FlightAware
05:34PM 24.1190 -82.3670 231° Southwest 389 448 20,200  Level FlightAware
05:34PM 24.0860 -82.4110 231° Southwest 389 448 20,200  Level FlightAware
05:35PM 24.0500 -82.4590 231° Southwest 389 448 20,200  Level FlightAware
05:36PM 24.0160 -82.5060 232° Southwest 389 448 20,200  Level FlightAware
05:42PM 23.2599 -82.4141 177° South  Level FlightAware Approximate
05:43PM 23.1336 -82.4080 177° South  Level FlightAware Approximate
05:44PM 23.0072 -82.4019 177° South  Level FlightAware Approximate
05:45PM 22.9891 -82.4091 177° South  Level Estimated
05:46PM 22.9891 -82.4091 177° South  Level Estimated
05:47PM 22.9891 -82.4091 177° South  Level Estimated
05:48PM 22.9891 -82.4091 177° South  Level Estimated
05:49PM 22.9891 -82.4091 177° South  Level Estimated
05:50PM 22.9891 -82.4091 177° South  Level Estimated
05:51PM 22.9891 -82.4091 177° South  Level Estimated
05:52PM 22.9891 -82.4091 177° South  Level Estimated
05:53PM 22.9891 -82.4091 177° South  Level Estimated
05:54PM 22.9891 -82.4091 177° South  Level Estimated
05:55PM 22.9891 -82.4091 177° South  Level Estimated
05:56PM 22.9891 -82.4091 177° South  Level Estimated
05:57PM 22.9891 -82.4091 177° South  Level Estimated
05:58PM 22.9891 -82.4091 177° South  Level Estimated
05:59PM 22.9891 -82.4091 177° South  Level Estimated
06:00PM 22.9891 -82.4091 177° South  Level Estimated
06:01PM 22.9891 -82.4091 177° South  Level Estimated
06:02PM 22.9891 -82.4091 177° South  Level Estimated
06:03PM 22.9891 -82.4091 177° South  Level Estimated
06:04PM 22.9891 -82.4091 177° South  Level Estimated
06:05PM 22.9891 -82.4091 177° South  Level Estimated